Location: Unspecified
(0.0000°N, 0.0000°E)
Time: 22:41:42
(UTC+00:00)

STARLINK-31958 - Visible Passes

Search period start: 20 June 2025 00:00
Search period end: 30 June 2025 00:00
Orbit: 443 x 445 km, 43.0° (Epoch: 20 June)

Date Brightness Start Highest point End Pass type
(mag) Time Alt. Az. Time Alt. Az. Time Alt. Az.
20 Jun ? 05:24:05 10° S 05:26:30 17° SE 05:28:55 10° E visible
20 Jun ? 18:41:07 10° WNW 18:44:12 29° SW 18:47:19 10° SSE visible
21 Jun ? 04:44:41 10° SSE 04:46:08 12° SE 04:47:35 10° ESE visible
23 Jun ? 05:01:24 24° SW 05:03:23 86° NW 05:06:54 10° NE visible
24 Jun ? 04:23:21 56° ESE 04:23:21 56° ESE 04:26:31 10° NE visible
25 Jun ? 03:45:17 15° ENE 03:45:17 15° ENE 03:46:00 10° ENE visible
25 Jun ? 05:19:33 10° WNW 05:20:37 11° NW 05:21:42 10° NNW visible
26 Jun ? 04:40:36 16° NW 04:40:36 16° NW 04:42:31 10° N visible
27 Jun ? 04:02:25 12° N 04:02:25 12° N 04:02:46 10° N visible
